Regional Weather Roundup
Issued by NWS Jackson, KY

Home | Current Version | Previous Version | Graphics & Text | Print | Product List | Glossary On
Versions: 1 2 3 4 5 6 7 8 9 10 11 12 13 14 15 16 17 18 19 20 21 22 23 24 25 26 27 28 29 30 31 32 33 34 35 36 37 38 39 40 41 42 43 44 45 46 47 48 49 50
000
ASUS43 KJKL 041110
RWRJKL

EAST KENTUCKY HOURLY WEATHER ROUNDUP
NATIONAL WEATHER SERVICE JACKSON KY
700 AM EDT SAT JUL 04 2015

NOTE: "FAIR" INDICATES FEW OR NO CLOUDS BELOW 12,000 FEET WITH
NO SIGNIFICANT WEATHER AND/OR OBSTRUCTIONS TO VISIBILITY.

* THESE REPORTS ARE NOT UNDER NWS QUALITY CONTROL AND MAY NOT
  REPORT WEATHER SUCH AS PRECIPITATION AND FOG.

KYZ079-080-083-085-087-088-110-112-115-119-120-041200
...EASTERN KENTUCKY...

CITY           SKY/WX    TMP DP  RH WIND       PRES   REMARKS
JACKSON        CLOUDY    67  65  93 CALM      29.97R FOG
LONDON         CLOUDY    69  65  86 SW3       29.98R
SOMERSET*      CLOUDY    68  68 100 SW3       29.98R
MONTICELLO*    MOCLDY    70  70 100 CALM      29.99R
MIDDLESBORO*   CLOUDY    67  67 100 CALM      29.99R
HARLAN APT*      N/A     66  66 100 N5        29.99R
HAZARD APT*    PTSUNNY   68  68 100 CALM      29.97R
BLACK MTN*       N/A     61  61 100 SW2         N/A
PIKEVILLE APT* CLOUDY    66  66 100 CALM      29.97R
BIG SANDY*     CLOUDY    68  67  98 W6        29.96R
MOREHEAD APT*  FOG       66  66 100 NW5       29.97R VSB 3/4
$$

KYZ035-036-041-042-044-050-067-078-099-041200
...CENTRAL KENTUCKY...

CITY           SKY/WX    TMP DP  RH WIND       PRES   REMARKS
MT STERLING*   CLOUDY    66  66 100 CALM      29.97R FOG
FLEMING/MASON* MOCLDY    64  64 100 CALM      29.97R FOG
DANVILLE*      CLOUDY    68  66  94 CALM      29.97R
RICHMOND*      CLOUDY    68  64  88 CALM      29.96R
LEXINGTON      CLOUDY    68  66  93 CALM      29.96R FOG
FRANKFORT      CLOUDY    67  65  93 CALM      29.94R FOG
$$

KYZ091>093-OHZ055-061-077-WVZ005-015-034-035-042-041200
...SOUTHERN OHIO/WEST VIRGINIA...

CITY           SKY/WX    TMP DP  RH WIND       PRES   REMARKS
COVINGTON      CLOUDY    67  64  90 N7        29.96R FOG
COLUMBUS       PTCLDY    59  57  93 N6        29.94R
DAYTON         PTCLDY    61  57  87 NW3       29.97R
WILMINGTON     CLEAR     60  58  92 CALM      29.95R FOG
HUNTINGTON     CLOUDY    65  65 100 CALM      29.93R FOG
CHARLESTON     TSTM      68  66  93 W8        29.92R FOG
PINEVILLE*     CLOUDY    67  67 100 MISG      30.02R FOG
BECKLEY        LGT RAIN  65  62  90 SW9       29.99R FOG
BLUEFIELD      LGT RAIN  66  62  87 W7        30.02R FOG
$$

VAZ002-007-008-TNZ017-027-036-066-071-041200
...SOUTHWEST VIRGINIA/EAST TENNESSEE...

CITY           SKY/WX    TMP DP  RH WIND       PRES   REMARKS
WISE*          LGT RAIN  64  64 100 SW7       30.04R
JONESVILLE*      N/A    N/A N/A N/A MISG        N/A
ABINGDON*      CLOUDY    67  67 100 W6        30.02S
BRISTOL        LGT RAIN  68  66  93 SW9       30.00R FOG
KNOXVILLE      CLOUDY    69  67  93 SW6       29.98R
OAK RIDGE      CLOUDY    70  66  87 CALM      30.00R
CROSSVILLE     CLOUDY    68  65  90 CALM      30.02R FOG
NASHVILLE      CLOUDY    71  70  96 CALM      29.97R
$$

...KEY TO REMARKS...
VSB - VISIBILITY IN MILES
WCI - WIND CHILL INDEX
HX  - HEAT INDEX

$$



USA.gov is the U.S. government's official web portal to all federal, state and local government web resources and services.